Location: *
(51.1248°S, 108.4023°W)
Time: 07:29:21
(UTC+00:00)

Cosmos 1937 Rocket - Pass Details

Date: 21 October 2021
Orbit: 746 x 781 km, 74.0° (Epoch: 06 December)

Event Time Altitude Azimuth Distance (km) Brightness Sun altitude
Rises 09:49:03 0° 31° (NNE) 3,270 6.6 -17.8°
Reaches altitude 10° 09:52:26 10° 54° (NE) 2,353 6.1 -17.5°
Maximum altitude 09:55:21 15° 87° (E) 2,030 6.2 -17.1°
Drops below altitude 10° 09:58:17 10° 120° (ESE) 2,366 7.3 -16.8°
Sets 10:01:41 0° 142° (SE) 3,300 8.5 -16.4°
